• în România
  • Lista ţărilor
  • Pe 7 zile
  • Temperatura apei
  • Hartă satelitară
  • Meteo pe hartă
  • Widget-uri
  • user-avatar
    Intrare

    Meteo pe oră la Mayrhofen

    Astăzi, 19 Octombrie, Vineri

    Timp Temperatura Precipitaţii Vânt Presiune Umiditate
    00:00 +5°C° 0 mm 1 m/s 618 mmHg 95%
    01:00 +5°C° 0 mm 1 m/s 618 mmHg 96%
    02:00 +5°C° 0 mm 1 m/s 618 mmHg 95%
    03:00 +5°C° 0 mm 1 m/s 618 mmHg 94%
    04:00 +4°C° 0 mm 1 m/s 618 mmHg 93%
    05:00 +4°C° 0 mm 1 m/s 618 mmHg 92%
    06:00 +4°C° 0 mm 1 m/s 618 mmHg 91%
    07:00 +4°C° 0 mm 1 m/s 618 mmHg 90%
    08:00 +6°C° 0 mm 1 m/s 619 mmHg 79%
    09:00 +9°C° 0 mm 1 m/s 620 mmHg 68%
    10:00 +11°C° 0 mm 0 m/s 621 mmHg 56%
    11:00 +13°C° 0 mm 1 m/s 622 mmHg 52%
    12:00 +13°C° 0 mm 1 m/s 622 mmHg 47%
    13:00 +14°C° 0 mm 1 m/s 622 mmHg 43%
    14:00 +14°C° 0 mm 1 m/s 622 mmHg 48%
    15:00 +13°C° 0 mm 1 m/s 622 mmHg 54%
    16:00 +12°C° 0 mm 1 m/s 621 mmHg 59%
    17:00 +10°C° 0 mm 1 m/s 621 mmHg 69%
    18:00 +7°C° 0 mm 1 m/s 620 mmHg 79%
    19:00 +5°C° 0 mm 1 m/s 619 mmHg 89%
    20:00 +5°C° 0 mm 1 m/s 619 mmHg 90%
    21:00 +4°C° 0 mm 1 m/s 620 mmHg 90%
    22:00 +4°C° 0 mm 1 m/s 620 mmHg 91%
    23:00 +4°C° 0 mm 1 m/s 620 mmHg 90%

    Mâine, 20 Octombrie, Sâmbătă

    Timp Temperatura Precipitaţii Vânt Presiune Umiditate
    00:00 +4°C° 0 mm 1 m/s 620 mmHg 90%
    01:00 +3°C° 0 mm 1 m/s 620 mmHg 89%
    02:00 +3°C° 0 mm 1 m/s 620 mmHg 88%
    03:00 +3°C° 0 mm 1 m/s 620 mmHg 87%
    04:00 +3°C° 0 mm 1 m/s 620 mmHg 86%
    05:00 +3°C° 0 mm 1 m/s 620 mmHg 84%
    06:00 +3°C° 0 mm 1 m/s 621 mmHg 82%
    07:00 +3°C° 0 mm 1 m/s 621 mmHg 79%
    08:00 +6°C° 0 mm 1 m/s 622 mmHg 67%
    09:00 +8°C° 0 mm 1 m/s 623 mmHg 55%
    10:00 +11°C° 0 mm 1 m/s 624 mmHg 43%
    11:00 +12°C° 0 mm 1 m/s 625 mmHg 42%
    12:00 +12°C° 0 mm 2 m/s 625 mmHg 40%
    13:00 +13°C° 0 mm 2 m/s 625 mmHg 38%
    14:00 +12°C° 0 mm 2 m/s 625 mmHg 45%
    15:00 +10°C° 0 mm 2 m/s 624 mmHg 51%
    16:00 +10°C° 0 mm 2 m/s 624 mmHg 58%
    17:00 +8°C° 0 mm 2 m/s 623 mmHg 69%
    18:00 +6°C° 0 mm 1 m/s 623 mmHg 79%
    19:00 +4°C° 0 mm 1 m/s 622 mmHg 90%
    20:00 +4°C° 0 mm 1 m/s 622 mmHg 90%
    21:00 +3°C° 0 mm 1 m/s 622 mmHg 89%
    22:00 +3°C° 0 mm 1 m/s 622 mmHg 89%
    23:00 +3°C° 0 mm 1 m/s 622 mmHg 86%

    Poimâine, 21 Octombrie, Duminică

    Timp Temperatura Precipitaţii Vânt Presiune Umiditate
    00:00 +2°C° 0 mm 1 m/s 622 mmHg 83%
    01:00 +2°C° 0 mm 1 m/s 622 mmHg 79%
    02:00 +2°C° 0 mm 1 m/s 621 mmHg 74%
    03:00 +2°C° 0 mm 1 m/s 621 mmHg 69%
    04:00 +2°C° 0 mm 1 m/s 621 mmHg 64%
    05:00 +2°C° 0 mm 1 m/s 621 mmHg 61%
    06:00 +2°C° 0 mm 1 m/s 621 mmHg 59%
    07:00 +1°C° 0 mm 2 m/s 621 mmHg 56%
    08:00 +4°C° 0 mm 2 m/s 622 mmHg 47%
    09:00 +7°C° 0 mm 2 m/s 623 mmHg 39%
    10:00 +11°C° 0 mm 1 m/s 624 mmHg 30%
    11:00 +12°C° 0 mm 2 m/s 624 mmHg 30%
    12:00 +12°C° 0 mm 2 m/s 624 mmHg 30%
    13:00 +13°C° 0 mm 2 m/s 624 mmHg 31%
    14:00 +12°C° 0 mm 2 m/s 624 mmHg 37%
    15:00 +10°C° 0 mm 2 m/s 623 mmHg 44%
    16:00 +10°C° 0 mm 2 m/s 622 mmHg 50%
    17:00 +7°C° 0 mm 2 m/s 622 mmHg 59%
    18:00 +5°C° 0 mm 2 m/s 621 mmHg 68%
    19:00 +3°C° 0 mm 2 m/s 620 mmHg 77%
    20:00 +3°C° 0 mm 2 m/s 620 mmHg 76%
    21:00 +3°C° 0 mm 2 m/s 620 mmHg 74%
    22:00 +2°C° 0 mm 2 m/s 620 mmHg 73%
    23:00 +3°C° 0 mm 2 m/s 620 mmHg 69%

    22 Octombrie, Luni

    Timp Temperatura Precipitaţii Vânt Presiune Umiditate
    00:00 +3°C° 0 mm 2 m/s 620 mmHg 66%
    01:00 +3°C° 0 mm 2 m/s 620 mmHg 63%
    02:00 +3°C° 0 mm 2 m/s 620 mmHg 62%
    03:00 +3°C° 0 mm 2 m/s 620 mmHg 61%
    04:00 +3°C° 0 mm 2 m/s 619 mmHg 61%
    05:00 +2°C° 0 mm 2 m/s 619 mmHg 63%
    06:00 +2°C° 0 mm 2 m/s 619 mmHg 64%
    07:00 +1°C° 0 mm 2 m/s 619 mmHg 66%
    08:00 +3°C° 0 mm 2 m/s 620 mmHg 60%
    09:00 +5°C° 0 mm 2 m/s 621 mmHg 53%
    10:00 +7°C° 0 mm 2 m/s 622 mmHg 46%
    11:00 +7°C° 0 mm 2 m/s 622 mmHg 46%
    12:00 +8°C° 0 mm 2 m/s 622 mmHg 47%
    13:00 +8°C° 0 mm 2 m/s 622 mmHg 47%
    14:00 +7°C° 0 mm 2 m/s 621 mmHg 52%
    15:00 +7°C° 0 mm 2 m/s 621 mmHg 57%
    16:00 +6°C° 0 mm 2 m/s 621 mmHg 62%
    17:00 +4°C° 0.1 mm 2 m/s 621 mmHg 71%
    18:00 +3°C° 0.1 mm 2 m/s 620 mmHg 79%
    19:00 +2°C° 0.1 mm 2 m/s 620 mmHg 88%
    20:00 +1°C° 0.1 mm 2 m/s 620 mmHg 89%
    21:00 +1°C° 0.1 mm 2 m/s 621 mmHg 89%
    22:00 +1°C° 0.1 mm 2 m/s 621 mmHg 90%
    23:00 +1°C° 0.2 mm 2 m/s 621 mmHg 91%

    23 Octombrie, Marţi

    Timp Temperatura Precipitaţii Vânt Presiune Umiditate
    00:00 +1°C° 0.2 mm 2 m/s 621 mmHg 91%
    01:00 +1°C° 0.2 mm 2 m/s 621 mmHg 92%
    02:00 +1°C° 0.3 mm 2 m/s 620 mmHg 92%
    03:00 -1°C° 0.3 mm 2 m/s 620 mmHg 93%
    04:00 -1°C° 0.3 mm 2 m/s 620 mmHg 94%
    05:00 -1°C° 0.3 mm 2 m/s 620 mmHg 94%
    06:00 -1°C° 0.3 mm 3 m/s 620 mmHg 93%
    07:00 -1°C° 0.3 mm 3 m/s 620 mmHg 93%
    08:00 -1°C° 0.3 mm 3 m/s 620 mmHg 89%
    09:00 -1°C° 0.3 mm 3 m/s 620 mmHg 84%
    10:00 0°C° 0.3 mm 3 m/s 621 mmHg 80%
    11:00 0°C° 0.1 mm 3 m/s 620 mmHg 77%
    12:00 0°C° 0.1 mm 3 m/s 620 mmHg 73%
    13:00 +1°C° 0.1 mm 3 m/s 620 mmHg 70%
    14:00 0°C° 0.1 mm 3 m/s 620 mmHg 70%
    15:00 0°C° 0.1 mm 3 m/s 620 mmHg 71%
    16:00 0°C° 0.1 mm 3 m/s 620 mmHg 72%
    17:00 -1°C° 0.3 mm 2 m/s 620 mmHg 77%
    18:00 -2°C° 0.3 mm 2 m/s 620 mmHg 81%
    19:00 -3°C° 0.3 mm 2 m/s 620 mmHg 86%
    20:00 -3°C° 0.6 mm 2 m/s 620 mmHg 87%
    21:00 -3°C° 0.6 mm 2 m/s 620 mmHg 87%
    22:00 -3°C° 0.6 mm 2 m/s 620 mmHg 87%
    23:00 -3°C° 1 mm 2 m/s 620 mmHg 88%

    24 Octombrie, Miercuri

    Timp Temperatura Precipitaţii Vânt Presiune Umiditate
    00:00 -3°C° 1 mm 2 m/s 620 mmHg 88%
    01:00 -2°C° 1 mm 2 m/s 619 mmHg 89%
    02:00 -2°C° 1 mm 2 m/s 619 mmHg 90%
    03:00 -2°C° 1 mm 2 m/s 619 mmHg 90%
    04:00 -2°C° 1 mm 2 m/s 619 mmHg 91%
    05:00 -2°C° 1.1 mm 2 m/s 619 mmHg 91%
    06:00 -2°C° 1.1 mm 3 m/s 619 mmHg 91%
    07:00 -2°C° 1.1 mm 3 m/s 619 mmHg 91%
    08:00 -1°C° 1.4 mm 3 m/s 619 mmHg 90%
    09:00 0°C° 1.4 mm 3 m/s 619 mmHg 88%
    10:00 +1°C° 1.4 mm 3 m/s 620 mmHg 87%
    11:00 +1°C° 1.3 mm 3 m/s 619 mmHg 86%
    12:00 +2°C° 1.3 mm 3 m/s 619 mmHg 86%
    13:00 +2°C° 1.3 mm 3 m/s 619 mmHg 86%
    14:00 +2°C° 1.5 mm 3 m/s 619 mmHg 88%
    15:00 +2°C° 1.5 mm 3 m/s 619 mmHg 89%
    16:00 +2°C° 1.5 mm 3 m/s 619 mmHg 90%
    17:00 +2°C° 1.5 mm 3 m/s 619 mmHg 91%
    18:00 +2°C° 1.5 mm 3 m/s 619 mmHg 92%
    19:00 +1°C° 1.5 mm 3 m/s 619 mmHg 93%
    20:00 +2°C° 0.9 mm 3 m/s 619 mmHg 94%
    21:00 +2°C° 0.9 mm 3 m/s 619 mmHg 94%
    22:00 +2°C° 0.9 mm 3 m/s 619 mmHg 95%
    23:00 +2°C° 0.8 mm 3 m/s 619 mmHg 95%
    Arată mai mult